• Join FlightAware (Why Join?)
  • Login
  • US Flag GB Flag 
18:02 EST


 

Airport Tracker/Info


-or-


 

Live Flight TrackerFlight Track Log ✈ SWA3143 ✈ 27-Apr-2013 ✈ KMAF - KDAL

Flight Track Log - Related Links

Times and Time Zones

All times are in EDT time to prevent confusion due to time zone crossing. See the SWA3143 flight status page for this flight to view local times or setup timezone preferences in your user account.

Time Position Orientation Groundspeed Altitude Reporting Facility
EDT Latitude Longitude Course Direction KTS MPH feet Rate Location/Type
17:22 31.9500 -101.9425 83° East 296 341 10,600  Level Fort Worth Center
17:23 31.9661 -101.8431 79° East 325 374 12,800 2,900 Climbing Fort Worth Center
17:24 31.9806 -101.7261 82° East 339 390 16,400 3,150 Climbing Fort Worth Center
17:25 31.9994 -101.6022 80° East 365 420 19,100 2,773 Climbing Fort Worth Center
17:26 32.0684 -101.5344 82° East  Level FlightAware Approximate
17:26 32.0161 -101.4731 81° East 381 438 21,900  Level Fort Worth Center
17:27 32.0830 -101.4037 82° East  Level FlightAware Approximate
17:27 32.0350 -101.3392 81° East 399 459 23,600  Level Fort Worth Center
17:28 32.0975 -101.2729 83° East  Level FlightAware Approximate
17:28 32.0542 -101.1928 81° East 429 494 25,900  Level Fort Worth Center
17:29 32.0750 -101.0492 80° East 444 511 27,500 1,850 Climbing Fort Worth Center
17:30 32.0967 -100.8758 82° East 464 534 29,600 2,200 Climbing Fort Worth Center
17:31 32.1175 -100.7197 81° East 474 545 31,900 1,700 Climbing Fort Worth Center
17:32 32.1383 -100.5658 81° East 474 545 33,000 550 Climbing Fort Worth Center
17:33 32.1589 -100.4022 82° East 485 558 33,000  Level Fort Worth Center
17:34 32.1794 -100.2408 81° East 492 566 33,000  Level Fort Worth Center
17:35 32.2019 -100.0722 81° East 503 579 33,000  Level Fort Worth Center
17:36 32.2219 -99.9108 82° East 503 579 33,000  Level Fort Worth Center
17:37 32.2333 -99.7467 85° East 503 579 33,000  Level Fort Worth Center
17:38 32.2258 -99.5794 93° East 503 579 33,000  Level Fort Worth Center
17:39 32.2203 -99.4122 92° East 503 579 33,000  Level Fort Worth Center
17:40 32.2144 -99.2475 92° East 503 579 33,000 -250 Level Fort Worth Center
17:41 32.2106 -99.0831 92° East 498 573 32,500 -800 Descending Fort Worth Center
17:42 32.2125 -98.9211 89° East 498 573 31,400 -1,000 Descending Fort Worth Center
17:43 32.2206 -98.7592 87° East 493 567 30,500 -900 Descending Fort Worth Center
17:44 32.2328 -98.5997 85° East 491 565 29,600 -950 Descending Fort Worth Center
17:45 32.2383 -98.4400 88° East 491 565 28,600 -1,950 Descending Fort Worth Center
17:46 32.2458 -98.2731 87° East 491 565 25,700 -3,050 Descending Fort Worth Center
17:47 32.2531 -98.1136 87° East 501 577 22,500 -3,100 Descending Fort Worth Center
17:48 32.2600 -97.9736 87° East 475 547 19,500 -3,100 Descending Fort Worth Center
17:49 32.2669 -97.8164 87° East 452 520 16,300 -3,000 Descending Fort Worth Center
17:50 32.2694 -97.6958 89° East 419 482 13,500 -2,550 Descending Fort Worth Center
17:51 32.2758 -97.5583 87° East 391 450 11,200 -1,664 Descending Fort Worth Center
17:52 32.3053 -97.4650 70° East 329 379 10,200 -1,200 Descending Fort Worth Center
17:53 32.3700 -97.3889 45° Northeast 305 351 8,800 -1,438 Descending Fort Worth Center
17:54 32.3803 -97.3028 82° East 278 320 7,300 -1,500 Descending Fort Worth Center
17:55 32.3739 -97.1994 94° East 286 329 5,800 -1,150 Descending Fort Worth Center
17:56 32.3883 -97.1231 77° East 275 316 5,000 -450 Descending Fort Worth Center
17:57 32.4089 -97.0269 76° East 270 311 4,900 -300 Descending Fort Worth Center
17:58 32.4256 -96.9506 75° East 268 308 4,400 -450 Descending Fort Worth Center
17:59 32.4794 -96.8789 48° Northeast 250 288 4,000 -200 Descending Fort Worth Center
18:00 32.5397 -96.8367 31° Northeast 258 297 4,000  Level Fort Worth Center
18:01 32.6064 -96.8192 12° North 252 290 4,000 -504 Level Fort Worth Center
18:02 32.6669 -96.8014 14° North 226 260 3,000 -727 Descending Fort Worth Center
18:03 32.7000 -96.7833 25° Northeast 219 252 2,800 -475 Descending Dallas / Fort Worth TRACON
18:04 32.7667 -96.7667 12° North 198 228 2,200 -545 Descending Dallas / Fort Worth TRACON
18:05 32.8000 -96.7833 337° Northwest 160 184 1,700 -626 Descending Dallas / Fort Worth TRACON
18:06 32.8333 -96.8167 320° Northwest 129 148 1,000 -764 Descending Dallas / Fort Worth TRACON
18:08 32.8333 -96.8500 52° Northeast  Level FlightAware Approximate
18:15 32.8471 -96.8518 52° Northeast  Level Estimated